Weather History for LTCC - September, 2013

Change the Weather History Date:

Tuesday, September 17, 2013

  Actual Average Record
Temperature  
Mean Temperature 72 °F -  
Max Temperature 88 °F 84 °F 97 °F (2012)
Min Temperature 56 °F 56 °F 50 °F (1997)
Cooling Degree Days 7    
Growing Degree Days 22 (Base 50)    
Moisture  
Dew Point 39 °F    
Average Humidity 27    
Maximum Humidity 53    
Minimum Humidity 11    
Precipitation  
Precipitation 0.00 in 0.03 in - ()
Sea Level Pressure  
Sea Level Pressure 29.72 in    
Wind  
Wind Speed 7 mph ()    
Max Wind Speed 20 mph    
Max Gust Speed -    
Visibility 7.2 miles    
Events      
Averages and records for this station are not official NWS values.
T = Trace of Precipitation, MM = Missing Value Source: Averaged Metar Reports

Daily Weather History Graph

Daily Weather History Graph

Search for Another Location

Airport or City:

Trip Planner

Search our weather history database for the weather conditions in past years. The results will help you decide how hot, cold, wet, or windy it might be!

Date:

Astronomy

Sep. 17, 2013 Rise Set
Actual Time 6:02 AM EEST 6:24 PM EEST
Civil Twilight 5:36 AM EEST 6:50 PM EEST
Nautical Twilight 5:05 AM EEST 7:21 PM EEST
Astronomical Twilight 4:33 AM EEST 7:52 PM EEST
Moon 4:56 PM EEST (9/17) 3:34 AM EEST (9/17)
Length of Visible Light 13h 14m
Length of Day
12h 21m
Waxing Gibbous, 94% of the Moon is Illuminated
Sep 17
Waxing Gibbous
Sep 19
Full
Sep 27
Last Quarter
Oct 5
New
Oct 12
First Quarter

Hourly Weather History & Observations

Time (EEST) Temp. Dew Point Humidity Pressure Visibility Wind Dir Wind Speed Gust Speed Precip Events Conditions
12:20 AM 68.0 °F 26.6 °F 21% 29.74 in - ESE 3.5 mph - N/A   Clear
12:50 AM 68.0 °F 26.6 °F 21% 29.74 in - Calm Calm - N/A   Clear
1:20 AM 66.2 °F 26.6 °F 23% 29.74 in - Calm Calm - N/A   Clear
1:50 AM 64.4 °F 26.6 °F 24% 29.74 in - Calm Calm - N/A   Clear
2:20 AM 62.6 °F 28.4 °F 27% 29.74 in - NW 4.6 mph - N/A   Clear
2:50 AM 64.4 °F 28.4 °F 26% 29.74 in - ESE 4.6 mph - N/A   Clear
3:20 AM 62.6 °F 26.6 °F 26% 29.74 in - South 3.5 mph - N/A   Clear
3:50 AM 62.6 °F 28.4 °F 27% 29.71 in - Calm Calm - N/A   Clear
4:20 AM 59.0 °F 26.6 °F 29% 29.71 in - WSW 3.5 mph - N/A   Clear
4:50 AM 59.0 °F 26.6 °F 29% 29.71 in - WSW 3.5 mph - N/A   Clear
5:20 AM 59.0 °F 26.6 °F 29% 29.74 in - NW 4.6 mph - N/A   Clear
5:50 AM 60.8 °F 26.6 °F 27% 29.74 in - West 2.3 mph - N/A   Clear
6:20 AM 59.0 °F 26.6 °F 29% 29.74 in - Variable 1.2 mph - N/A   Clear
6:50 AM 62.6 °F 28.4 °F 27% 29.74 in - Variable 1.2 mph - N/A   Clear
7:20 AM 66.2 °F 28.4 °F 24% 29.74 in - Variable 1.2 mph - N/A   Clear
7:50 AM 71.6 °F 30.2 °F 22% 29.74 in - Calm Calm - N/A   Clear
8:20 AM 71.6 °F 33.8 °F 25% 29.74 in - Variable 2.3 mph - N/A   Clear
8:50 AM 71.6 °F 35.6 °F 27% 29.74 in - East 4.6 mph - N/A   Clear
9:00 AM 72 °F 34 °F 15% 29.65 in 12 mi East 4.6 mph - -  
9:20 AM 75.2 °F 35.6 °F 24% 29.74 in - East 5.8 mph - N/A   Clear
9:50 AM 78.8 °F 39.2 °F 24% 29.74 in - East 8.1 mph - N/A   Clear
10:20 AM 82.4 °F 37.4 °F 20% 29.74 in - SE 8.1 mph - N/A   Clear
10:50 AM 84.2 °F 35.6 °F 18% 29.74 in - South 15.0 mph - N/A   Clear
11:20 AM 84.2 °F 44.6 °F 25% 29.74 in - South 15.0 mph - N/A   Clear
11:50 AM 86.0 °F 44.6 °F 23% 29.74 in - South 17.3 mph - N/A   Clear
12:20 PM 86.0 °F 42.8 °F 22% 29.71 in - South 15.0 mph - N/A   Clear
12:50 PM 87.8 °F 42.8 °F 21% 29.71 in - South 16.1 mph - N/A   Clear
1:20 PM 87.8 °F 42.8 °F 21% 29.71 in - South 18.4 mph - N/A   Clear
1:50 PM 87.8 °F 44.6 °F 22% 29.71 in - SSW 19.6 mph - N/A   Clear
2:20 PM 87.8 °F 42.8 °F 21% 29.68 in - South 18.4 mph - N/A   Clear
2:50 PM 87.8 °F 42.8 °F 21% 29.68 in - South 17.3 mph - N/A   Clear
3:00 PM 88 °F 41 °F 11% 29.58 in 12 mi South 17.3 mph - -  
3:20 PM 87.8 °F 41.0 °F 19% 29.68 in - South 18.4 mph - N/A   Clear
3:50 PM 86.0 °F 41.0 °F 20% 29.68 in - South 17.3 mph - N/A   Clear
4:20 PM 86.0 °F 41.0 °F 20% 29.68 in - South 18.4 mph - N/A   Clear
4:50 PM 86.0 °F 44.6 °F 23% 29.68 in 6.2 mi South 19.6 mph - N/A   Scattered Clouds
5:20 PM 84.2 °F 46.4 °F 27% 29.68 in 6.2 mi SSW 18.4 mph - N/A   Scattered Clouds
5:50 PM 82.4 °F 46.4 °F 28% 29.68 in 6.2 mi South 18.4 mph - N/A   Scattered Clouds
6:20 PM 82.4 °F 46.4 °F 28% 29.68 in 6.2 mi SSW 18.4 mph - N/A   Scattered Clouds
6:50 PM 80.6 °F 48.2 °F 32% 29.71 in 6.2 mi SSW 16.1 mph - N/A   Scattered Clouds
7:20 PM 80.6 °F 48.2 °F 32% 29.71 in 6.2 mi SSW 19.6 mph - N/A   Partly Cloudy
7:50 PM 80.6 °F 48.2 °F 32% 29.71 in 6.2 mi SSW 15.0 mph - N/A   Partly Cloudy
8:20 PM 80.6 °F 51.8 °F 37% 29.74 in 6.2 mi SW 19.6 mph - N/A   Partly Cloudy
8:50 PM 78.8 °F 50.0 °F 36% 29.74 in 6.2 mi SW 17.3 mph - N/A   Scattered Clouds
9:00 PM 79 °F 50 °F 25% 29.61 in 12 mi SW 17.3 mph - -   Partly Cloudy
9:20 PM 78.8 °F 51.8 °F 39% 29.74 in 6.2 mi SW 13.8 mph - N/A   Scattered Clouds
9:50 PM 77.0 °F 55.4 °F 47% 29.74 in 6.2 mi West 12.7 mph - N/A   Scattered Clouds
10:20 PM 75.2 °F 53.6 °F 47% 29.74 in 6.2 mi WNW 8.1 mph - N/A   Scattered Clouds
10:50 PM 75.2 °F 53.6 °F 47% 29.74 in 6.2 mi West 9.2 mph - N/A   Scattered Clouds
11:20 PM 73.4 °F 53.6 °F 50% 29.74 in 6.2 mi West 5.8 mph - N/A   Scattered Clouds
11:50 PM 71.6 °F 53.6 °F 53% 29.74 in 6.2 mi West 8.1 mph - N/A   Scattered Clouds